KK7N Weather Reports


time (UTC)temp
C
wind
direction
speed
KPH
gust
KPH
rain 1hr
cm
rain 24hr
cm
rain mn
cm
humidity
%
barometer
mb
20260901200108 19 0 4.8 11.3 0.00 0.00 0.00 63 1011.8
20260901194604 18 267 4.8 11.3 0.00 0.00 0.00 64 1011.9
20260901193109 18 231 3.2 9.7 0.00 0.00 0.00 66 1012.1
20260901191607 18 287 4.8 9.7 0.00 0.00 0.00 66 1012.1
20260901190109 18 267 4.8 11.3 0.00 0.00 0.00 68 1012.3
20260901184554 17 223 4.8 11.3 0.00 0.00 0.00 69 1012.5
20260901183053 17 250 4.8 9.7 0.00 0.00 0.00 69 1012.4
20260901181601 17 220 1.6 9.7 0.00 0.00 0.00 71 1012.4
20260901180058 17 261 3.2 9.7 0.00 0.00 0.00 73 1012.6
20260901174554 17 275 3.2 11.3 0.00 0.00 0.00 74 1012.7
20260901173107 16 236 4.8 12.9 0.00 0.00 0.00 75 1012.6
20260901171605 16 168 4.8 14.5 0.00 0.00 0.00 76 1012.6
20260901170057 16 199 3.2 14.5 0.00 0.00 0.00 76 1012.5
20260901164557 16 238 6.4 16.1 0.00 0.00 0.00 75 1012.4
20260901163101 16 223 3.2 11.3 0.00 0.00 0.00 76 1012.3
20260901161559 16 254 4.8 12.9 0.00 0.00 0.00 76 1012.4
20260901160055 16 192 3.2 11.3 0.00 0.00 0.00 75 1012.3
20260901154557 16 222 8.0 14.5 0.00 0.00 0.00 75 1012.3
20260901153054 15 0 0.0 6.4 0.00 0.00 0.00 76 1012.3
20260901151559 15 0 0.0 0.0 0.00 0.00 0.00 76 1012.1
20260901144559 15 0 0.0 0.0 0.00 0.00 0.00 76 1012.0
20260901143110 15 0 0.0 3.2 0.00 0.00 0.00 76 1012.1
20260901141553 15 0 0.0 3.2 0.00 0.00 0.00 77 1012.0
20260901140059 15 0 0.0 6.4 0.00 0.00 0.00 77 1012.0
20260901134558 15 0 0.0 4.8 0.00 0.00 0.00 78 1012.0
20260901133053 15 0 0.0 0.0 0.00 0.00 0.00 78 1011.9
20260901131555 15 0 0.0 0.0 0.00 0.00 0.00 78 1011.9
20260901130058 15 0 0.0 0.0 0.00 0.00 0.00 78 1011.9
20260901124555 15 0 0.0 0.0 0.00 0.00 0.00 78 1011.8
20260901123118 15 0 0.0 3.2 0.00 0.00 0.00 79 1011.9
20260901121605 15 0 0.0 0.0 0.00 0.00 0.00 79 1011.9
20260901120101 14 0 0.0 9.7 0.00 0.00 0.00 79 1011.9
20260901114558 14 0 0.0 4.8 0.00 0.00 0.00 78 1011.8
20260901113104 15 0 0.0 3.2 0.00 0.00 0.00 78 1011.7
20260901111556 15 0 1.6 6.4 0.00 0.00 0.00 78 1011.8
20260901110050 15 153 3.2 8.0 0.00 0.00 0.00 77 1011.6
20260901104600 15 173 4.8 11.3 0.00 0.00 0.00 76 1011.6
20260901103100 15 182 3.2 9.7 0.00 0.00 0.00 76 1011.5
20260901101553 15 188 0.0 4.8 0.00 0.00 0.00 75 1011.4
20260901100113 15 0 3.2 8.0 0.00 0.00 0.00 74 1011.4
20260901094557 16 176 3.2 11.3 0.00 0.00 0.00 73 1011.3
20260901093102 16 0 0.0 6.4 0.00 0.00 0.00 73 1011.2
20260901091604 16 0 0.0 3.2 0.00 0.00 0.00 73 1011.0
20260901090056 16 180 3.2 6.4 0.00 0.00 0.00 71 1010.8
20260901084555 16 0 0.0 0.0 0.00 0.00 0.00 71 1010.7
20260901083105 16 153 0.0 6.4 0.00 0.00 0.00 69 1010.8
20260901081559 17 161 0.0 8.0 0.00 0.00 0.00 68 1010.8
20260901080100 17 170 1.6 14.5 0.00 0.00 0.00 67 1010.6
20260901074554 17 164 3.2 16.1 0.00 0.00 0.00 65 1010.5
20260901073055 18 188 3.2 11.3 0.00 0.00 0.00 65 1010.2
20260901071601 18 161 1.6 6.4 0.00 0.00 0.00 64 1010.0
20260901070104 18 0 1.6 9.7 0.00 0.00 0.00 63 1009.8
20260901064556 19 0 1.6 6.4 0.00 0.00 0.00 62 1009.5
20260901063046 19 169 3.2 9.7 0.00 0.00 0.00 61 1009.2
20260901061548 19 150 1.6 12.9 0.00 0.00 0.00 61 1009.2
20260901060056 20 0 0.0 6.4 0.00 0.00 0.00 60 1008.9
20260901054551 19 144 0.0 4.8 0.00 0.00 0.00 61 1008.6
20260901053109 19 162 1.6 6.4 0.00 0.00 0.00 61 1008.6
20260901051558 19 165 0.0 6.4 0.00 0.00 0.00 61 1008.5
20260901050052 20 0 0.0 0.0 0.00 0.00 0.00 61 1008.2
20260901044617 20 0 0.0 0.0 0.00 0.00 0.00 62 1007.9
20260901043056 20 0 0.0 0.0 0.00 0.00 0.00 60 1007.8
20260901041555 21 0 0.0 0.0 0.00 0.00 0.00 58 1007.8
20260901040104 21 0 0.0 0.0 0.00 0.00 0.00 56 1007.5
20260901034558 22 0 0.0 0.0 0.00 0.00 0.00 54 1007.2
20260901033055 23 0 0.0 6.4 0.00 0.00 0.00 51 1007.0
20260901031554 24 165 1.6 4.8 0.00 0.00 0.00 46 1007.1
20260901024547 26 0 0.0 3.2 0.00 0.00 0.00 42 1007.0
20260901023055 27 213 3.2 11.3 0.00 0.00 0.00 39 1006.9
20260901021557 27 184 1.6 8.0 0.00 0.00 0.00 39 1006.9
20260901020058 27 186 3.2 9.7 0.00 0.00 0.00 39 1006.8
20260901014556 28 233 6.4 14.5 0.00 0.00 0.00 38 1006.7
20260901013047 28 261 6.4 11.3 0.00 0.00 0.00 38 1006.7
20260901011604 28 236 1.6 4.8 0.00 0.00 0.00 36 1006.6
20260901010053 28 306 3.2 8.0 0.00 0.00 0.00 38 1006.5
20260901004603 28 81 1.6 8.0 0.00 0.00 0.00 36 1006.7
20260901003048 29 65 1.6 6.4 0.00 0.00 0.00 38 1006.6
20260901001555 29 352 3.2 8.0 0.00 0.00 0.00 36 1006.7
20260901000057 29 348 0.0 4.8 0.00 0.00 0.00 34 1006.7
20260831234550 30 317 4.8 9.7 0.00 0.00 0.00 34 1006.7
20260831233049 30 317 4.8 11.3 0.00 0.00 0.00 35 1006.8
20260831231602 30 262 4.8 12.9 0.00 0.00 0.00 35 1006.9
20260831230055 28 0 1.6 9.7 0.00 0.00 0.00 37 1007.0
20260831224601 30 265 4.8 11.3 0.00 0.00 0.00 34 1007.1
20260831223102 29 285 3.2 6.4 0.00 0.00 0.00 36 1007.3
20260831221547 28 71 1.6 4.8 0.00 0.00 0.00 37 1007.4
20260831220059 28 80 3.2 14.5 0.00 0.00 0.00 40 1007.7
20260831214622 27 279 1.6 16.1 0.00 0.00 0.00 39 1007.8
20260831213059 27 105 1.6 8.0 0.00 0.00 0.00 40 1008.2
20260831211601 28 283 3.2 12.9 0.00 0.00 0.00 39 1008.2
20260831210057 27 83 3.2 14.5 0.00 0.00 0.00 41 1008.3
20260831204603 27 304 4.8 14.5 0.00 0.00 0.00 41 1008.4
20260831203055 26 326 3.2 8.0 0.00 0.00 0.00 45 1008.5
20260831201559 25 352 1.6 12.9 0.00 0.00 0.00 46 1008.6